PulseSat

PulseSat

RADUGA 23 [-]

Last updated on March 20, 2019, 3:12 a.m. UTC

1 19928U 89030A   19077.61862032 -.00000037  00000-0  00000-0 0  9992
2 19928  14.5603 353.4227 0015715 126.0810 347.0070  1.00181428108301
UTC
Height (km)
Latitude
Longitude
Inclination
Orbital Period

Next 30 passes for location: Hong Kong

Rise time Rise Azimuth (degrees) Set time Set Azimuth (degrees) Duration Max altitude (degrees)

No matching passes for this satellites

PulseSat

PulseSat is the new satellites software and hardware trackering solution by Pulsely.
Satellite Two Line Element Set source: US Air Force Space Command

Download PulseSat for iOS
© 2017 Pulsely Limited